Find Starlink 11455

NORAD ID: 62463 Int'l Des: 2024-254 Owner: SPXS Country: US Constellation: starlink operational
LEOCIRCULAR

实时位置

正在加载3D地球...

关于 Starlink 11455

正在加载描述...

即将过境

Passes for default location (London). Set your location on the main map for personalized predictions.

高度历史

Loading altitude history...

两行轨道根数

1 62463U 24254B 26122.40228419 .00320426 00000-0 24016-2 0 9993
2 62463 42.9997 259.6832 0002169 270.3149 89.7470 15.70879667 77849
Epoch: May 2, 2026 • Age: 10 hours

当前状态

高度 357.3 km
速度 7.70 km/s
星下点 30.03°N, 112.13°W
发射日期 Dec 31, 2024
运行时间 1.3 years
类型 internet

技术详情

分类 Payload
质量 960.00 kg
干质量 910.00 kg
总质量 960.00 kg
长度 0.30 m
直径 4.10 m
跨度 29.00 m
形状 Box + pan
制造商 SPXS
平台类型 Starlink V2MD
阶段状态 In Orbit
所有者/国家 SPXS/US

Most Searched